THOR AGENA B R/B, 2174

Orbit data source: Space-Track

THOR AGENA B R/B, 2174 is space debris in SSO originally from a launch on Sun, 15 May 1966 UTC launched from the Air Force Western Test Range (AFWTR). Debris objects in space refer to the collection of defunct objects orbiting the Earth. Examples of debris include non-operational satellites, rocket bodies, and fragments generated from explosions, collisions, or faulty payload assembly.

Loading next visibility...
Identifier
2174, 1966-040B
Orbit
SSO
Country
Flag of USUS
Related business
Manufacturer
LMSC
Mission
Spacecraft
Bus & Motor
AGENA B, Unknown motor
Mass
600 kg wet, 600 kg dry
Launch date (UTC)
1966-05-15 (60 years ago)
Launch vehicle
Unknown
Launch site
Air Force Western Test Range (AFWTR)
Object type
Payload
Rocket body
Debris
Shape & HBR
Unknown
Radar Cross Section
Large (>1 m²)

Expand to show TLE details & history
Last TLE update: 10 hours ago

TLE from 10 hours ago
0 THOR AGENA B R/B
1 02174U 66040B   26070.78835073  .00000013  00000-0  11478-3 0  9994
2 02174 100.3234 356.2459 0055560 272.9364 148.8979 13.36300070916215
Epoch: 2026-03-11T18:55Z
TLE epoch observation values (Epoch: 2026-03-11T18:55:13.503Z)
Latitude
60.54576°
Longitude
-115.72635°
Altitude
1,169.055 km
Speed
7.257 km/s
True Right ascension
22h 30m 06s
True Declination
60° 24' 23"
Sunlit
Object was in daylight at epoch
Visualization orbit readout
Latitude
Unknown
Longitude
Unknown
Altitude
Unknown
Speed
Unknown
Apparent Right ascension
Unknown
Apparent Declination
Unknown
Sunlit
N/A
Visualization observer readout
Local Sidereal Time
09:28:41
Azimuth
Unknown
Elevation
Unknown
Doppler factor
Unknown
Orbital elements
Apogee altitude
1,162.108 km
Perigee altitude
1,078.784 km
Semi-major axis
7,498.583 km
Eccentricity
0.00556
Inclination
100.3234°
RAAN
356.2459°
Arg. of periapsis
272.9364°
True anomaly
149.22484°
Mean anomaly
148.8979°
Eccentric anomaly
149.06156°
Mean motion
3.34252 °/min
Orbital period
107.7 mins
BSTAR
0.00011478
Loading maneuver chart data...
Computing Atmospheric mass density...
Loading historical data...
Loading historical data...
Loading historical data...
Loading historical data...
Loading historical data...
Loading historical data...
Loading historical data...

Documentation

Showing up to 5 results
|